TimePDT,TemperatureF,Dew PointF,Humidity,Sea Level PressureIn,VisibilityMPH,Wind Direction,Wind SpeedMPH,Gust SpeedMPH,PrecipitationIn,Events,Conditions,WindDirDegrees,DateUTC
12:53 AM,54.0,42.1,64,29.74,10.0,Calm,Calm,-,N/A,,Clear,0,2013-05-21 07:53:00
1:53 AM,54.0,42.1,64,29.73,10.0,West,5.8,-,N/A,,Clear,280,2013-05-21 08:53:00
2:53 AM,50.0,43.0,77,29.72,10.0,Calm,Calm,-,N/A,,Clear,0,2013-05-21 09:53:00
3:53 AM,53.1,42.1,66,29.70,10.0,Calm,Calm,-,N/A,,Clear,0,2013-05-21 10:53:00
4:53 AM,52.0,39.9,63,29.69,10.0,WSW,4.6,-,N/A,,Clear,240,2013-05-21 11:53:00
5:53 AM,51.1,43.0,74,29.69,10.0,SSE,6.9,-,N/A,,Clear,150,2013-05-21 12:53:00
6:53 AM,57.9,41.0,53,29.68,10.0,SW,9.2,-,N/A,,Clear,230,2013-05-21 13:53:00
7:53 AM,60.1,41.0,49,29.67,10.0,West,16.1,-,N/A,,Mostly Cloudy,260,2013-05-21 14:53:00
8:53 AM,57.0,41.0,55,29.68,10.0,West,17.3,-,N/A,,Mostly Cloudy,270,2013-05-21 15:53:00
9:53 AM,55.0,41.0,59,29.69,10.0,West,25.3,31.1,N/A,,Overcast,280,2013-05-21 16:53:00
10:53 AM,55.9,43.0,62,29.70,10.0,WNW,26.5,33.4,N/A,,Overcast,290,2013-05-21 17:53:00
11:53 AM,48.0,45.0,89,29.75,8.0,West,15.0,18.4,0.00,Rain,Light Rain,270,2013-05-21 18:53:00
12:53 PM,48.0,46.0,93,29.78,3.0,SW,6.9,-,0.11,Rain,Rain,220,2013-05-21 19:53:00
1:53 PM,48.9,46.9,93,29.77,10.0,SE,9.2,-,0.06,Rain,Light Rain,140,2013-05-21 20:53:00
2:53 PM,51.1,46.9,86,29.78,10.0,SE,9.2,-,0.00,Rain,Light Rain,140,2013-05-21 21:53:00
3:53 PM,55.0,46.9,74,29.73,10.0,SSE,12.7,-,0.01,,Overcast,160,2013-05-21 22:53:00
4:53 PM,55.9,42.1,60,29.70,10.0,SE,10.4,-,N/A,,Clear,130,2013-05-21 23:53:00
5:53 PM,57.9,42.1,56,29.69,10.0,SSE,5.8,-,N/A,,Clear,150,2013-05-22 00:53:00
6:53 PM,57.9,39.9,51,29.68,10.0,SE,8.1,-,N/A,,Partly Cloudy,140,2013-05-22 01:53:00
7:40 PM,48.9,41.0,74,29.76,10.0,WSW,35.7,48.3,0.00,Rain,Light Rain,240,2013-05-22 02:40:00
7:53 PM,45.0,43.0,93,29.75,2.5,WSW,29.9,39.1,0.01,Rain,Rain,240,2013-05-22 02:53:00
8:09 PM,45.0,42.1,90,29.78,4.0,WSW,21.9,31.1,0.04,Rain,Rain,240,2013-05-22 03:09:00
8:53 PM,44.1,39.9,85,29.80,6.0,WSW,21.9,33.4,0.11,Rain,Rain,240,2013-05-22 03:53:00
9:53 PM,43.0,37.9,82,29.83,10.0,West,17.3,-,0.06,Rain,Light Rain,260,2013-05-22 04:53:00
10:30 PM,43.0,39.9,89,29.85,10.0,SW,12.7,-,0.00,,Overcast,220,2013-05-22 05:30:00
10:49 PM,42.8,37.4,81,29.83,10.0,WSW,23.0,29.9,0.00,,Overcast,240,2013-05-22 05:49:00
10:53 PM,43.0,37.0,80,29.83,10.0,WSW,19.6,29.9,0.00,,Overcast,240,2013-05-22 05:53:00
11:53 PM,43.0,36.0,76,29.86,10.0,SW,9.2,-,N/A,,Overcast,230,2013-05-22 06:53:00